User: anonymous   Login
Location: Mentone
(34.5413°N, 85.5351°W)
Time: 11:45:37
(UTC-05:00)
Language:

Cosmos 1703 - Orbit

View from above orbital plane
View from above orbital plane
View from above satellite
View from above satellite

Ground track
Ground track

The orbit data is extracted from the following two-line orbital elements,

1 16262U 85108A   15180.18544391  .00000789  00000-0  48689-4 0  9992
2 16262 082.4955 235.0636 0005814 215.4114 144.6729 15.08561783610423
Epoch (UTC): 29 June 2015 04:27:02
Eccentricity: 0.0005814
inclination: 82.4955°
perigee height: 536 km
apogee height: 544 km
right ascension of ascending node: 235.0636°
argument of perigee: 215.4114°
revolutions per day: 15.08561783
mean anomaly at epoch: 144.6729°
orbit number at epoch: 61042

The dashed part of the orbit path shows where the satellite is in the earth's shadow,  

DLR